Cloud_Cover
100 83 87 74 0 0 0 0 0 0 0 0 0 0 0 0 0 0 0 0 0 0 0 0 0 0 11 10 28 26 14 99 100 100 100 100 100 56 16 0 0 0 0
100 100 100 100 100 20 0 0 0 0 0 1 0 0 0 0 0 0 0 0 0 0 0 0 0 0 10 12 1 0 40 100 100 72 2 18 0 0 0 0 0 0 0
100 100 100 100 100 100 80 0 0 0 0 0 3 1 0 0 0 0 0 0 0 0 0 0 0 0 1 4 0 0 0 18 79 0 0 22 0 0 0 0 0 0 0
100 100 100 100 100 100 100 92 1 0 0 0 5 5 0 0 0 0 0 0 0 0 0 0 0 0 0 6 0 0 0 0 1 0 0 0 0 0 0 0 0 0 0
100 100 100 100 100 100 100 100 99 21 0 0 0 0 0 0 0 0 0 0 0 0 0 0 0 0 0 0 0 0 0 0 0 0 0 0 0 0 0 0 0 0 0
100 100 100 100 100 100 100 100 100 100 80 14 2 6 8 3 0 0 0 0 0 0 0 0 0 0 0 0 0 0 0 0 0 0 0 0 0 0 0 0 0 0 0
100 100 100 100 100 100 100 100 100 100 100 100 70 82 100 100 94 25 0 0 0 0 0 0 0 0 0 0 0 0 0 0 0 0 0 0 0 0 0 0 2 4 5
100 100 100 100 100 100 100 100 100 100 100 100 100 100 100 100 100 100 100 42 0 0 0 0 0 0 0 0 0 0 0 0 0 0 0 3 4 4 5 5 5 5 5
100 100 100 100 100 100 100 100 100 100 100 100 100 100 100 100 100 100 100 100 68 4 1 2 5 3 0 0 0 0 0 0 0 5 5 5 6 5 5 5 5 5 5
100 100 100 100 100 100 100 100 100 100 100 100 100 100 100 100 100 100 100 100 100 69 5 5 5 5 2 0 0 0 1 0 2 5 5 39 91 55 54 16 5 5 5
100 100 100 100 100 100 100 100 100 100 100 100 100 100 100 100 100 100 100 100 100 100 100 40 5 5 5 24 5 5 5 5 5 16 94 100 100 100 99 98 67 10 5
99 97 90 100 100 100 100 100 100 100 100 100 100 100 100 100 100 100 100 100 100 100 100 100 100 85 42 82 50 51 66 42 80 95 99 100 100 100 100 100 100 100 79
96 86 94 100 100 100 100 100 100 100 100 100 100 100 100 100 100 100 100 100 100 100 100 100 100 100 100 100 100 91 100 100 100 97 92 100 100 100 100 100 100 100 100
91 98 90 100 100 100 100 100 100 100 100 100 100 100 100 100 100 100 100 100 100 100 100 100 100 100 100 100 100 100 100 100 100 100 100 100 100 100 100 100 100 95 100
68 83 100 100 95 100 100 100 100 100 100 100 100 100 100 100 100 100 100 100 100 100 100 100 100 100 100 100 100 100 100 100 100 100 100 100 100 100 100 100 100 100 100
62 90 100 100 100 100 100 100 100 100 100 100 100 100 100 100 100 100 100 100 100 100 100 100 100 100 100 100 100 100 100 100 100 100 100 100 100 100 100 100 100 100 100
99 92 100 100 100 100 100 100 100 100 100 100 100 100 100 100 100 100 100 100 100 100 100 100 100 100 100 100 100 100 100 100 100 100 100 100 100 100 100 100 100 100 100
90 100 100 100 100 100 100 100 100 100 100 100 100 100 100 100 100 100 100 100 100 100 100 100 100 100 100 100 100 100 100 100 100 100 100 100 100 100 100 100 100 100 100
5 5 23 69 100 100 100 100 100 100 100 100 100 100 100 100 100 100 100 100 100 100 100 100 100 100 100 100 100 100 100 100 100 100 100 100 100 100 100 100 100 100 100
5 5 5 5 5 5 5 58 95 100 100 100 100 100 100 100 100 100 100 100 100 100 100 100 100 100 100 100 100 100 100 100 100 100 100 100 100 100 100 100 96 100 100
5 5 5 5 5 5 5 5 5 5 1 0 5 48 73 100 100 100 99 100 100 100 100 100 100 100 100 100 100 100 100 100 100 100 100 100 100 100 100 100 100 100 100
5 5 21 5 5 5 2 2 4 5 5 5 5 5 5 9 96 96 100 100 100 100 100 100 100 97 88 100 100 100 100 100 100 100 100 100 100 100 100 100 100 100 100
5 39 58 20 9 0 4 5 1 1 5 5 5 1 3 0 1 34 78 10 100 100 100 100 100 100 100 100 94 100 100 100 100 100 100 100 100 100 100 100 100 100 100
72 20 95 55 5 5 4 5 2 3 5 5 5 5 5 21 54 0 5 5 67 94 100 100 100 100 100 100 100 100 100 100 100 100 100 100 100 98 100 100 97 97 100
27 100 6 5 5 5 5 5 4 2 5 7 24 63 30 17 56 27 14 56 97 100 98 100 100 100 100 86 36 94 99 100 100 100 100 100 98 23 66 93 100 86 72
75 4 5 26 5 5 5 5 5 5 44 95 100 99 100 94 83 94 88 18 100 100 100 100 100 99 100 100 100 100 100 100 100 100 92 33 36 1 19 94 91 96 100